Burlington, WA
on Wednesday, November 21, 2012

Wednesday
Previous Day Next Day
Daily Summary
 ActualAverage (KBLI)Record (KBLI)
Temperature
Mean Temperature °F 42°F  
Max Temperature 46°F 48°F 58°F (1968)
Min Temperature 42°F 36°F 19°F (1985)
Degree Days
Heating Degree Days 21 23  
Month to date heating degree days 436  
Cooling Degree Days 0 0  
Month to date cooling degree days 0  
Year to date cooling degree days 42  
Moisture
Dew Point 43°F   
Average Humidity 98    
Maximum Humidity 100    
Minimum Humidity 87    
Precipitation
Precipitation 0.19 in 0.19 in 2.73 in (1980)
Month to date precipitation 4.13  
Year to date precipitation 29.94  
Wind
Wind Speed 7 mph   
Max Wind Speed 13 mph   
Max Gust Speed 21 mph   
Visibility 9 miles   
Events     

Key: T is trace of precipitation, MM is missing value
Source: NWS Daily Summary
Time(PST)TemperatureDew PointHumidity Pressure Visibility Wind DirectionWind SpeedGust SpeedPrecipitationEvents Conditions
12:15 AM 46.4°F 44.6°F 93% 29.59 in 10.0 miles ENE 8.1 mph - 0.00 in   Mostly Cloudy
12:35 AM 46.4°F 44.6°F 93% 29.57 in 10.0 miles ENE 10.4 mph - 0.00 in   Mostly Cloudy
12:55 AM 46.4°F 44.6°F 93% 29.56 in 10.0 miles ENE 6.9 mph - 0.00 in   Mostly Cloudy
1:15 AM 46.4°F 42.8°F 87% 29.55 in 10.0 miles East 8.1 mph - 0.00 in   Scattered Clouds
1:35 AM 46.4°F 42.8°F 87% 29.53 in 10.0 miles East 10.4 mph - 0.00 in   Clear
1:55 AM 46.4°F 42.8°F 87% 29.52 in 10.0 miles ENE 10.4 mph - 0.00 in   Clear
2:15 AM 46.4°F 42.8°F 87% 29.52 in 10.0 miles East 9.2 mph - 0.00 in   Partly Cloudy
2:35 AM 46.4°F 44.6°F 93% 29.54 in 8.0 miles SSW 6.9 mph - 0.00 in   Mostly Cloudy
2:55 AM 44.6°F 44.6°F 100% 29.54 in 7.0 miles SSW 6.9 mph - 0.01 in   Overcast
3:15 AM 44.6°F 44.6°F 100% 29.53 in 8.0 miles South 6.9 mph - 0.02 in   Overcast
3:35 AM 44.6°F 44.6°F 100% 29.53 in 6.0 miles SSE 4.6 mph - 0.02 in   Overcast
3:55 AM 44.6°F 44.6°F 100% 29.53 in 6.0 miles ESE 5.8 mph - 0.04 in   Overcast
4:15 AM 44.6°F 44.6°F 100% 29.53 in 8.0 miles SE 8.1 mph - 0.00 in   Overcast
4:35 AM 44.6°F 44.6°F 100% 29.53 in 7.0 miles ESE 10.4 mph - 0.00 in   Overcast
4:55 AM 44.6°F 44.6°F 100% 29.54 in 10.0 miles SE 9.2 mph - 0.00 in   Overcast
5:15 AM 46.4°F 44.6°F 93% 29.55 in 8.0 miles South 12.7 mph 20.7 mph 0.00 in   Overcast
5:35 AM 46.4°F 44.6°F 93% 29.56 in 10.0 miles South 12.7 mph 19.6 mph 0.00 in   Overcast
6:15 AM 44.6°F 44.6°F 100% 29.59 in 2.5 miles SW 9.2 mph - 0.10 in   Overcast
6:35 AM 42.8°F 42.8°F 100% 29.61 in 10.0 miles SSW 5.8 mph - 0.12 in   Overcast
6:55 AM 42.8°F 42.8°F 100% 29.63 in 10.0 miles SSW 8.1 mph - 0.12 in   Overcast
7:15 AM 42.8°F 42.8°F 100% 29.65 in 7.0 miles SSW 5.8 mph - 0.00 in   Mostly Cloudy
7:35 AM 42.8°F 42.8°F 100% 29.67 in 10.0 miles SW 5.8 mph - 0.01 in   Overcast
7:55 AM 42.8°F 42.8°F 100% 29.68 in 10.0 miles WSW 3.5 mph - 0.01 in   Mostly Cloudy
8:15 AM 42.8°F 42.8°F 100% 29.71 in 10.0 miles Calm Calm - 0.00 in   Mostly Cloudy
8:35 AM 42.8°F 42.8°F 100% 29.73 in 10.0 miles SSE 4.6 mph - 0.00 in   Overcast
8:55 AM 42.8°F 42.8°F 100% 29.76 in 10.0 miles South 4.6 mph - 0.00 in   Overcast
9:15 AM 42.8°F 42.8°F 100% 29.78 in 10.0 miles South 5.8 mph - 0.00 in   Overcast
9:35 AM 42.8°F 42.8°F 100% 29.79 in 10.0 miles South 5.8 mph - 0.00 in   Overcast
9:55 AM 44.6°F 44.6°F 100% 29.80 in 10.0 miles South 5.8 mph - 0.00 in   Overcast
10:15 AM 42.8°F 42.8°F 100% 29.81 in 10.0 miles SSE 8.1 mph - 0.00 in   Overcast
10:35 AM 42.8°F 42.8°F 100% 29.82 in 9.0 miles Calm Calm - 0.00 in   Overcast
10:55 AM 44.6°F 44.6°F 100% 29.82 in 5.0 miles SE 8.1 mph - 0.00 in   Overcast
11:15 AM 44.6°F 44.6°F 100% 29.83 in 10.0 miles SE 3.5 mph - 0.00 in   Mostly Cloudy
11:35 AM 44.6°F 44.6°F 100% 29.83 in 10.0 miles ESE 5.8 mph - 0.00 in   Mostly Cloudy
11:55 AM 44.6°F 44.6°F 100% 29.84 in 8.0 miles SSE 5.8 mph - 0.00 in   Overcast
12:55 PM 44.6°F 44.6°F 100% 29.85 in 5.0 miles South 9.2 mph 16.1 mph 0.00 in   Overcast
1:15 PM 46.4°F 44.6°F 93% 29.86 in 10.0 miles South 9.2 mph - 0.00 in   Overcast
1:35 PM 44.6°F 42.8°F 93% 29.86 in 10.0 miles South 11.5 mph 18.4 mph 0.00 in   Overcast
1:55 PM 44.6°F 42.8°F 93% 29.88 in 10.0 miles South 8.1 mph - 0.00 in   Overcast
2:15 PM 44.6°F 42.8°F 93% 29.90 in 10.0 miles South 6.9 mph - 0.00 in   Overcast
2:35 PM 44.6°F 42.8°F 93% 29.91 in 8.0 miles South 8.1 mph - 0.00 in   Overcast
2:55 PM 44.6°F 42.8°F 93% 29.92 in 5.0 miles South 8.1 mph - 0.00 in   Overcast
3:15 PM 44.6°F 44.6°F 100% 29.94 in 4.0 miles SSW 8.1 mph - 0.01 in   Overcast
3:35 PM 44.6°F 44.6°F 100% 29.96 in 10.0 miles WNW 4.6 mph - 0.01 in   Mostly Cloudy
3:55 PM 42.8°F 42.8°F 100% 29.98 in 10.0 miles Calm Calm - 0.01 in   Mostly Cloudy
4:15 PM 42.8°F 42.8°F 100% 30.00 in 9.0 miles Calm Calm - 0.00 in   Overcast
4:35 PM 42.8°F 42.8°F 100% 30.02 in 9.0 miles South 4.6 mph - 0.00 in   Overcast
4:55 PM 42.8°F 42.8°F 100% 30.03 in 10.0 miles SSE 3.5 mph - 0.00 in   Overcast
5:15 PM 42.8°F 42.8°F 100% 30.04 in 10.0 miles South 4.6 mph - 0.00 in   Overcast
5:55 PM 42.8°F 42.8°F 100% 30.07 in 10.0 miles SSE 5.8 mph - 0.00 in   Overcast
6:15 PM 44.6°F 42.8°F 93% 30.09 in 10.0 miles South 3.5 mph - 0.00 in   Overcast
6:35 PM 44.6°F 44.6°F 100% 30.10 in 10.0 miles SW 4.6 mph - 0.00 in   Overcast
6:55 PM 42.8°F 42.8°F 100% 30.12 in 10.0 miles South 5.8 mph - 0.00 in   Overcast
7:15 PM 44.6°F 42.8°F 93% 30.13 in 10.0 miles South 5.8 mph - 0.00 in   Overcast
7:35 PM 44.6°F 44.6°F 100% 30.14 in 10.0 miles South 6.9 mph - 0.00 in   Overcast
7:55 PM 42.8°F 42.8°F 100% 30.15 in 10.0 miles SSW 4.6 mph - 0.00 in   Mostly Cloudy
8:15 PM 42.8°F 42.8°F 100% 30.17 in 10.0 miles Calm Calm - 0.00 in   Mostly Cloudy
8:35 PM 42.8°F 42.8°F 100% 30.18 in 10.0 miles South 5.8 mph - 0.00 in   Mostly Cloudy
8:55 PM 42.8°F 42.8°F 100% 30.20 in 10.0 miles Calm Calm - 0.00 in   Mostly Cloudy
9:15 PM 42.8°F 42.8°F 100% 30.21 in 10.0 miles Calm Calm - 0.00 in   Overcast
9:35 PM 42.8°F 42.8°F 100% 30.22 in 10.0 miles South 5.8 mph - 0.00 in   Overcast
9:55 PM 44.6°F 44.6°F 100% 30.24 in 10.0 miles South 5.8 mph - 0.00 in   Overcast
10:15 PM 42.8°F 42.8°F 100% 30.25 in 10.0 miles South 4.6 mph - 0.00 in   Mostly Cloudy
10:35 PM 42.8°F 42.8°F 100% 30.26 in 10.0 miles South 4.6 mph - 0.00 in   Mostly Cloudy
10:55 PM 42.8°F 42.8°F 100% 30.27 in 10.0 miles South 4.6 mph - 0.00 in   Scattered Clouds
11:15 PM 42.8°F 42.8°F 100% 30.28 in 10.0 miles SE 4.6 mph - 0.00 in   Mostly Cloudy
11:35 PM 42.8°F 42.8°F 100% 30.29 in 10.0 miles ESE 4.6 mph - 0.00 in   Overcast
11:55 PM 42.8°F 42.8°F 100% 30.30 in 10.0 miles South 3.5 mph - 0.00 in   Mostly Cloudy
Moon Phase
Nov. 21 Nov. 28 Dec. 06 Dec. 13 Dec. 20
Sunrise:07:27 AM (PST) Moon Rise:01:09 PM (PST)11/21
Sunset:04:23 PM (PST) Moon Set:12:22 AM (PST)11/21

Copyright © 2014 The Weather Underground, Inc.